Tracking 28125 objects as of 4-Oct-2023
HD Live streaming from Space Station
objects crossing your sky now

STARLINK-1909

Track STARLINK-1909 now!
10-day predictions
STARLINK-1909 is classified as:


NORAD ID: 47550
Int'l Code: 2021-009C
Perigee: 552.9 km
Apogee: 555.7 km
Inclination: 53.1 °
Period: 95.6 minutes
Semi major axis: 6925 km
RCS: Unknown
Launch date: February 4, 2021
Source: United States (US)
Launch site: AIR FORCE EASTERN TEST RANGE (AFETR)
Your satellite tracking list
Your tracking list is empty




NASA's NSSDC Master Catalog

Two Line Element Set (TLE):
1 47550U 21009C   23277.30078495  .00024759  00000-0  16743-2 0  9990
2 47550  53.0552  25.2638 0002034 104.3850 255.7365 15.06420303147930
Source of the keplerian elements: AFSPC